Overview Statistics Trail Chart Weather Telemetry Raw packets
 

This is the latest recevied weather packets stored in our database for station/object KC5TIL. If no packets are shown the sender has not sent any weather packets the latest 10 day(s).

<< 36 37 38 39 40 41 42 >>
Time Temp. Humidity Pressure Rain* Wind** Luminosity Snow
1788362214 32.22° C 59% 1016.9 hPa 0 mm - 530 W/m² -
1788361908 31.67° C 59% 1016.9 hPa 0 mm - 535 W/m² -
1788361603 31.11° C 61% 1017 hPa 0 mm - 520 W/m² -
1788361299 31.67° C 61% 1017 hPa 0 mm - 483 W/m² -
1788360993 31.67° C 60% 1017 hPa 0 mm - 410 W/m² -
1788360693 31.11° C 62% 1017.1 hPa 0 mm - 390 W/m² -
1788360389 31.67° C 60% 1017 hPa 0 mm - 361 W/m² -
1788360084 31.67° C 61% 1016.9 hPa 0 mm - 375 W/m² -
1788359779 31.11° C 61% 1016.9 hPa 0 mm - 319 W/m² -
1788359475 32.22° C 60% 1017 hPa 0 mm - 290 W/m² -
1788359170 31.67° C 61% 1017 hPa 0 mm - 271 W/m² -
1788358866 31.11° C 62% 1016.8 hPa 0 mm - 253 W/m² -
1788358565 30.56° C 63% 1016.7 hPa 0 mm - 229 W/m² -
1788358261 30.56° C 63% 1016.8 hPa 0 mm - 222 W/m² -
1788357956 30.56° C 64% 1016.9 hPa 0 mm - 195 W/m² -
1788357651 30.56° C 64% 1017 hPa 0 mm - 193 W/m² -
1788357350 30° C 66% 1017.1 hPa 0 mm - 180 W/m² -
1788357051 30° C 65% 1017.1 hPa 0 mm - 162 W/m² -
1788356746 30° C 66% 1017 hPa 0 mm - 161 W/m² -
1788356441 29.44° C 67% 1017.1 hPa 0 mm - 150 W/m² -
1788356135 29.44° C 67% 1017.1 hPa 0 mm - 132 W/m² -
1788355830 29.44° C 68% 1017 hPa 0 mm - 115 W/m² -
1788355525 29.44° C 69% 1017.4 hPa 0 mm - 92 W/m² -
1788355221 29.44° C 69% 1016.9 hPa 0 mm - 59 W/m² -
1788354917 28.89° C 69% 1016.8 hPa 0 mm - 54 W/m² -

* Rain latest hour (hover to see other rain measurements)
** Current wind speed in m/s (hover to see current wind gust speed)